Overview Statistics Trail Chart Weather Telemetry Raw packets
 

This is the latest recevied weather packets stored in our database for station/object WA9NNN-10. If no packets are shown the sender has not sent any weather packets the latest 10 day(s).

<< 2 3 4 5 6 7 8 >>
Time Temp. Humidity Pressure Rain* Wind** Luminosity Snow
1788635011 26.67° C 76% 1015.3 hPa 0 mm - - -
1788634711 26.67° C 76% 1015.2 hPa 0 mm - - -
1788634411 26.67° C 77% 1015.3 hPa 0 mm - - -
1788634112 26.67° C 78% 1015.3 hPa 0 mm - - -
1788633811 26.67° C 78% 1015.3 hPa 0 mm - - -
1788633511 26.67° C 77% 1015.4 hPa 0 mm - - -
1788633211 26.67° C 76% 1015.4 hPa 0 mm - - -
1788632911 27.22° C 76% 1015.5 hPa 0 mm - - -
1788632611 27.22° C 76% 1015.4 hPa 0 mm - - -
1788632311 26.67° C 77% 1015.5 hPa 0 mm - - -
1788632010 26.67° C 77% 1015.4 hPa 0 mm - - -
1788631711 26.67° C 77% 1015.4 hPa 0 mm - - -
1788631447 26.67° C 77% 1015.3 hPa 0 mm - - -
1788631111 26.67° C 77% 1015.4 hPa 0 mm - - -
1788630811 26.67° C 78% 1015.2 hPa 0 mm - - -
1788630511 26.67° C 78% 1015.3 hPa 0 mm - - -
1788630210 26.67° C 78% 1015.3 hPa 0 mm - - -
1788629911 26.11° C 79% 1015.3 hPa 0 mm - - -
1788629610 26.11° C 80% 1015.2 hPa 0 mm - - -
1788629311 26.11° C 80% 1015.2 hPa 0 mm - - -
1788629010 25.56° C 80% 1015.3 hPa 0 mm - - -
1788628711 26.11° C 80% 1015.4 hPa 0 mm - - -
1788628410 26.11° C 80% 1015.3 hPa 0 mm - - -
1788628111 26.11° C 79% 1015.3 hPa 0 mm - - -
1788627811 26.67° C 78% 1015.4 hPa 0 mm - - -

* Rain latest hour (hover to see other rain measurements)
** Current wind speed in m/s (hover to see current wind gust speed)